Weather History for Indianapolis, IN

Change the Weather History Date:

Tuesday, April 2, 2013

  Actual Average Record
Temperature  
Mean Temperature 35 °F 48 °F  
Max Temperature 45 °F 59 °F 81 °F (2010)
Min Temperature 24 °F 38 °F 20 °F (1961)
Degree Days  
Heating Degree Days 30 17  
Month to date heating degree days 57 34  
Since 1 July heating degree days 4974 4884  
Cooling Degree Days 0 0  
Month to date cooling degree days 0 0  
Year to date cooling degree days 0 2  
Moisture  
Dew Point 15 °F    
Average Humidity 51    
Maximum Humidity 74    
Minimum Humidity 27    
Precipitation  
Precipitation 0.00 in 0.12 in 2.08 in (1956)
Month to date precipitation 0.00 0.25  
Year to date precipitation 9.74 8.79  
Snow  
Snow 0.00 in 0.10 in 1.00 in (1992)
Month to date snowfall 0.0 0.1  
Since 1 July snowfall 34.5 25.8  
Snow Depth 0.00 in    
Sea Level Pressure  
Sea Level Pressure 30.25 in    
Wind  
Wind Speed 8 mph (WNW)    
Max Wind Speed 17 mph    
Max Gust Speed 22 mph    
Visibility 10 miles    
Events      
T = Trace of Precipitation, MM = Missing Value Source: NWS Daily Summary

Daily Weather History Graph

Daily Weather History Graph

Search for Another Location

Airport:

Trip Planner

Search our weather history database for the weather conditions in past years. The results will help you decide how hot, cold, wet, or windy it might be!

Date:

Astronomy

Apr. 02, 2013 Rise Set
Actual Time 7:27 AM EDT 8:10 PM EDT
Civil Twilight 7:00 AM EDT 8:37 PM EDT
Nautical Twilight 6:27 AM EDT 9:10 PM EDT
Astronomical Twilight 5:54 AM EDT 9:43 PM EDT
Moon 2:14 AM EDT (4/2) 12:18 PM EDT (4/2)
Length of Visible Light 13h 37m
Length of Day
12h 43m
Waning Gibbous, 56% of the Moon is Illuminated
Apr 2
Waning Gibbous
Apr 3
Last Quarter
Apr 10
New
Apr 18
First Quarter
Apr 25
Full

Hourly Weather History & Observations

Time (EDT) Temp. Windchill Dew Point Humidity Pressure Visibility Wind Dir Wind Speed Gust Speed Precip Events Conditions
12:54 AM 30.0 °F 24.1 °F 17.1 °F 59% 30.17 in 10.0 mi NW 5.8 mph - N/A   Clear
1:54 AM 28.9 °F 22.8 °F 17.1 °F 61% 30.18 in 10.0 mi NW 5.8 mph - N/A   Clear
2:54 AM 28.0 °F 22.8 °F 17.1 °F 63% 30.19 in 10.0 mi WSW 4.6 mph - N/A   Clear
3:54 AM 27.0 °F 21.6 °F 17.1 °F 66% 30.18 in 10.0 mi West 4.6 mph - N/A   Clear
4:54 AM 27.0 °F 19.5 °F 18.0 °F 69% 30.19 in 10.0 mi West 6.9 mph - N/A   Clear
5:54 AM 25.0 °F 18.1 °F 17.1 °F 72% 30.21 in 10.0 mi NW 5.8 mph - N/A   Clear
6:54 AM 24.1 °F 17.0 °F 16.0 °F 71% 30.23 in 10.0 mi WNW 5.8 mph - N/A   Clear
7:54 AM 24.1 °F 16.0 °F 17.1 °F 75% 30.25 in 10.0 mi NW 6.9 mph - N/A   Clear
8:54 AM 30.0 °F 24.1 °F 19.9 °F 66% 30.28 in 10.0 mi NW 5.8 mph - N/A   Clear
9:54 AM 33.1 °F 27.7 °F 17.1 °F 52% 30.30 in 10.0 mi North 5.8 mph - N/A   Clear
10:54 AM 36.0 °F 32.1 °F 15.1 °F 43% 30.31 in 10.0 mi Variable 4.6 mph - N/A   Partly Cloudy
11:54 AM 37.9 °F 32.1 °F 14.0 °F 38% 30.31 in 10.0 mi West 8.1 mph - N/A   Partly Cloudy
12:54 PM 39.9 °F 33.4 °F 12.9 °F 33% 30.30 in 10.0 mi WNW 10.4 mph 17.3 mph N/A   Clear
1:54 PM 41.0 °F 34.3 °F 14.0 °F 33% 30.27 in 10.0 mi WNW 11.5 mph 18.4 mph N/A   Clear
2:54 PM 44.1 °F 37.7 °F 15.1 °F 31% 30.26 in 10.0 mi NW 12.7 mph 16.1 mph N/A   Clear
3:54 PM 44.1 °F 37.1 °F 14.0 °F 30% 30.23 in 10.0 mi WNW 15.0 mph 19.6 mph N/A   Scattered Clouds
4:54 PM 45.0 °F 39.3 °F 14.0 °F 29% 30.24 in 10.0 mi WNW 11.5 mph - N/A   Scattered Clouds
5:54 PM 44.1 °F 39.0 °F 12.0 °F 27% 30.24 in 10.0 mi WNW 9.2 mph - N/A   Scattered Clouds
6:54 PM 44.1 °F 37.4 °F 12.9 °F 28% 30.24 in 10.0 mi WNW 13.8 mph - N/A   Scattered Clouds
7:54 PM 41.0 °F 34.7 °F 12.9 °F 32% 30.25 in 10.0 mi WNW 10.4 mph - N/A   Scattered Clouds
8:54 PM 37.0 °F 32.4 °F 14.0 °F 39% 30.25 in 10.0 mi WNW 5.8 mph - N/A   Scattered Clouds
9:54 PM 36.0 °F 31.1 °F 15.1 °F 43% 30.27 in 10.0 mi West 5.8 mph - N/A   Clear
10:54 PM 34.0 °F 28.8 °F 15.1 °F 46% 30.28 in 10.0 mi NW 5.8 mph - N/A   Clear
11:54 PM 35.1 °F 30.1 °F 15.1 °F 44% 30.28 in 10.0 mi NNW 5.8 mph - N/A   Clear